Weather History for KCKC - June, 2013

Change the Weather History Date:

Sunday, June 9, 2013

  Actual Average Record
Temperature  
Mean Temperature 52 °F -  
Max Temperature 64 °F 64 °F 77 °F (2012)
Min Temperature 41 °F 44 °F 37 °F (2011)
Degree Days  
Heating Degree Days 12    
Growing Degree Days 2 (Base 50)    
Moisture  
Dew Point 41 °F    
Average Humidity 62    
Maximum Humidity 82    
Minimum Humidity 39    
Precipitation  
Precipitation 0.10 in - - ()
Sea Level Pressure  
Sea Level Pressure 30.03 in    
Wind  
Wind Speed 5 mph (East)    
Max Wind Speed 12 mph    
Max Gust Speed 20 mph    
Visibility 10 miles    
Events Rain    
Averages and records for this station are not official NWS values.
T = Trace of Precipitation, MM = Missing Value Source: NWS Daily Summary

Daily Weather History Graph

Daily Weather History Graph

Search for Another Location

Airport or City:

Trip Planner

Search our weather history database for the weather conditions in past years. The results will help you decide how hot, cold, wet, or windy it might be!

Date:

Astronomy

Jun. 09, 2013 Rise Set
Actual Time 5:03 AM CDT 8:58 PM CDT
Civil Twilight 4:22 AM CDT 9:39 PM CDT
Nautical Twilight 3:26 AM CDT 10:35 PM CDT
Astronomical Twilight 1:59 AM CDT 12:04 AM CDT
Moon 6:04 AM CDT (6/9) 9:39 PM CDT (6/9)
Length of Visible Light 17h 17m
Length of Day
15h 55m
New Moon, 1% of the Moon is Illuminated
Jun 9
New Moon
Jun 16
First Quarter
Jun 23
Full
Jun 29
Last Quarter
Jul 8
New

Hourly Weather History & Observations

Time (CDT) Temp. Windchill Dew Point Humidity Pressure Visibility Wind Dir Wind Speed Gust Speed Precip Events Conditions
12:13 AM 44.6 °F - 37.4 °F 76% 30.04 in 10.0 mi Calm Calm - N/A   Clear
12:33 AM 44.6 °F 43.1 °F 35.6 °F 71% 30.04 in 10.0 mi ENE 3.5 mph - N/A   Clear
12:54 AM 44.6 °F 43.1 °F 35.6 °F 71% 30.05 in 10.0 mi NNE 3.5 mph - N/A   Clear
1:14 AM 44.6 °F 43.1 °F 35.6 °F 71% 30.05 in 10.0 mi NE 3.5 mph - N/A   Clear
1:34 AM 44.6 °F 42.2 °F 33.8 °F 66% 30.04 in 10.0 mi ENE 4.6 mph - N/A   Clear
1:53 AM 46.4 °F 44.3 °F 33.8 °F 62% 30.05 in 10.0 mi NE 4.6 mph - N/A   Clear
2:13 AM 42.8 °F 41.1 °F 33.8 °F 70% 30.05 in 10.0 mi NE 3.5 mph - N/A   Clear
2:33 AM 42.8 °F 41.1 °F 32.0 °F 66% 30.05 in 10.0 mi East 3.5 mph - N/A   Clear
2:54 AM 48.2 °F - 30.2 °F 50% 30.06 in 10.0 mi ESE 3.5 mph - N/A   Clear
3:14 AM 42.8 °F 41.1 °F 33.8 °F 70% 30.05 in 10.0 mi ENE 3.5 mph - N/A   Clear
3:33 AM 41.0 °F 39.0 °F 33.8 °F 76% 30.05 in 10.0 mi NNE 3.5 mph - N/A   Clear
3:53 AM 41.0 °F 38.0 °F 33.8 °F 76% 30.05 in 10.0 mi North 4.6 mph - N/A   Clear
4:13 AM 41.0 °F 38.0 °F 33.8 °F 76% 30.05 in 10.0 mi NNE 4.6 mph - N/A   Clear
4:33 AM 42.8 °F 39.3 °F 33.8 °F 70% 30.05 in 10.0 mi NNE 5.8 mph - N/A   Clear
4:54 AM 42.8 °F 40.1 °F 33.8 °F 70% 30.05 in 10.0 mi NNE 4.6 mph - N/A   Clear
5:14 AM 44.6 °F 43.1 °F 32.0 °F 61% 30.06 in 10.0 mi NNE 3.5 mph - N/A   Clear
5:33 AM 42.8 °F - 33.8 °F 70% 30.06 in 10.0 mi Calm Calm - N/A   Clear
5:54 AM 44.6 °F 43.1 °F 33.8 °F 66% 30.06 in 10.0 mi NE 3.5 mph - N/A   Clear
6:14 AM 44.6 °F 43.1 °F 35.6 °F 71% 30.06 in 10.0 mi ENE 3.5 mph - N/A   Clear
6:34 AM 48.2 °F - 37.4 °F 66% 30.06 in 10.0 mi East 4.6 mph - N/A   Clear
6:53 AM 51.8 °F - 42.8 °F 71% 30.06 in 10.0 mi Calm Calm - N/A   Clear
7:13 AM 57.2 °F - 44.6 °F 63% 30.06 in 10.0 mi ENE 3.5 mph - N/A   Clear
7:33 AM 59.0 °F - 46.4 °F 63% 30.06 in 10.0 mi ESE 4.6 mph - N/A   Clear
7:54 AM 59.0 °F - 46.4 °F 63% 30.07 in 10.0 mi ESE 3.5 mph - N/A   Clear
8:14 AM 60.8 °F - 46.4 °F 59% 30.06 in 10.0 mi Calm Calm - N/A   Clear
8:33 AM 60.8 °F - 44.6 °F 55% 30.06 in 10.0 mi SE 6.9 mph - N/A   Clear
8:54 AM 60.8 °F - 46.4 °F 59% 30.06 in 10.0 mi East 3.5 mph - N/A   Clear
9:14 AM 60.8 °F - 44.6 °F 55% 30.06 in 10.0 mi ESE 6.9 mph - N/A   Clear
9:33 AM 60.8 °F - 44.6 °F 55% 30.06 in 10.0 mi ESE 10.4 mph - N/A   Clear
9:54 AM 62.6 °F - 44.6 °F 52% 30.06 in 10.0 mi East 9.2 mph - N/A   Clear
10:14 AM 62.6 °F - 46.4 °F 55% 30.06 in 10.0 mi ESE 6.9 mph - N/A   Clear
10:33 AM 62.6 °F - 46.4 °F 55% 30.06 in 10.0 mi SE 6.9 mph - N/A   Clear
10:54 AM 62.6 °F - 46.4 °F 55% 30.06 in 10.0 mi ESE 6.9 mph - N/A   Clear
11:13 AM 64.4 °F - 44.6 °F 49% 30.06 in 10.0 mi ESE 6.9 mph 17.3 mph N/A   Clear
11:34 AM 64.4 °F - 44.6 °F 49% 30.06 in 10.0 mi ESE 8.1 mph 17.3 mph N/A   Clear
11:53 AM 64.4 °F - 42.8 °F 45% 30.06 in 10.0 mi ESE 10.4 mph 16.1 mph N/A   Clear
12:14 PM 64.4 °F - 39.2 °F 40% 30.05 in 10.0 mi SE 4.6 mph - N/A   Clear
12:34 PM 64.4 °F - 39.2 °F 40% 30.05 in 10.0 mi East 9.2 mph 17.3 mph N/A   Clear
12:53 PM 64.4 °F - 39.2 °F 40% 30.05 in 10.0 mi SE 6.9 mph 17.3 mph N/A   Clear
1:14 PM 64.4 °F - 39.2 °F 40% 30.05 in 10.0 mi ESE 10.4 mph 17.3 mph N/A   Clear
1:33 PM 64.4 °F - 39.2 °F 40% 30.05 in 10.0 mi East 8.1 mph - N/A   Clear
1:53 PM 62.6 °F - 37.4 °F 39% 30.05 in 10.0 mi East 8.1 mph 19.6 mph N/A   Clear
2:14 PM 62.6 °F - 39.2 °F 42% 30.05 in 10.0 mi East 9.2 mph - N/A   Clear
2:33 PM 60.8 °F - 39.2 °F 45% 30.05 in 10.0 mi ESE 8.1 mph - N/A   Clear
2:53 PM 60.8 °F - 41.0 °F 48% 30.04 in 10.0 mi East 9.2 mph - N/A   Clear
3:14 PM 60.8 °F - 42.8 °F 52% 30.04 in 10.0 mi East 6.9 mph - N/A   Clear
3:33 PM 60.8 °F - 42.8 °F 52% 30.04 in 10.0 mi East 8.1 mph - N/A   Clear
3:53 PM 60.8 °F - 42.8 °F 52% 30.04 in 10.0 mi East 5.8 mph - N/A   Clear
4:14 PM 60.8 °F - 42.8 °F 52% 30.03 in 10.0 mi East 6.9 mph - N/A Rain Light Rain
4:34 PM 57.2 °F - 44.6 °F 63% 30.03 in 10.0 mi East 5.8 mph - N/A Rain Rain
4:53 PM 57.2 °F - 44.6 °F 63% 30.03 in 10.0 mi ESE 3.5 mph - N/A Rain Rain
5:14 PM 57.2 °F - 44.6 °F 63% 30.03 in 10.0 mi East 8.1 mph - N/A   Drizzle
5:33 PM 55.4 °F - 44.6 °F 67% 30.02 in 10.0 mi East 8.1 mph - N/A Rain Light Rain
5:54 PM 55.4 °F - 44.6 °F 67% 30.02 in 10.0 mi East 5.8 mph - N/A Rain Rain
6:13 PM 53.6 °F - 44.6 °F 72% 30.01 in 10.0 mi ENE 5.8 mph - N/A   Light Drizzle
6:33 PM 53.6 °F - 44.6 °F 72% 30.00 in 10.0 mi NE 6.9 mph - N/A Rain Light Rain
6:54 PM 53.6 °F - 44.6 °F 72% 29.99 in 10.0 mi NE 6.9 mph - N/A   Drizzle
7:13 PM 51.8 °F - 42.8 °F 71% 29.98 in 10.0 mi NE 8.1 mph - 0.01 in Rain Light Rain
7:34 PM 53.6 °F - 42.8 °F 67% 29.97 in 10.0 mi ENE 5.8 mph - 0.01 in   Overcast
7:53 PM 53.6 °F - 42.8 °F 67% 29.97 in 10.0 mi ENE 6.9 mph - 0.01 in   Overcast
8:14 PM 53.6 °F - 42.8 °F 67% 29.96 in 10.0 mi NE 9.2 mph - N/A   Mostly Cloudy
8:33 PM 53.6 °F - 42.8 °F 67% 29.96 in 10.0 mi ENE 9.2 mph - N/A   Scattered Clouds
8:53 PM 53.6 °F - 44.6 °F 72% 29.95 in 10.0 mi ENE 9.2 mph - N/A   Mostly Cloudy
9:14 PM 53.6 °F - 44.6 °F 72% 29.95 in 10.0 mi ENE 8.1 mph - N/A   Overcast
9:34 PM 53.6 °F - 44.6 °F 72% 29.95 in 10.0 mi East 8.1 mph - N/A   Overcast
9:53 PM 55.4 °F - 46.4 °F 72% 29.95 in 10.0 mi ENE 8.1 mph - N/A Rain Light Rain
10:13 PM 53.6 °F - 44.6 °F 72% 29.96 in 10.0 mi East 8.1 mph - N/A Rain Light Rain
10:33 PM 53.6 °F - 44.6 °F 72% 29.95 in 10.0 mi East 8.1 mph - N/A   Drizzle
10:54 PM 53.6 °F - 44.6 °F 72% 29.94 in 10.0 mi East 8.1 mph - N/A   Drizzle
11:13 PM 53.6 °F - 46.4 °F 77% 29.94 in 10.0 mi East 11.5 mph 16.1 mph N/A Rain Rain
11:34 PM 53.6 °F - 46.4 °F 77% 29.94 in 10.0 mi East 9.2 mph - 0.04 in Rain Heavy Rain
11:53 PM 51.8 °F - 46.4 °F 82% 29.94 in 7.0 mi Calm Calm - 0.09 in Rain Rain